| time (UTC) | temp F | wind direction | speed knots | gust knots | rain 1hr in | rain 24hr in | rain mn in | humidity % | barometer mb |
| 20260506201847 | 58 | 85 | 3.5 | 4.3 | 0.01 | 0.00 | 0.10 | 97 | 1008.0 |
| 20260506201348 | 58 | 42 | 0.9 | 1.7 | 0.00 | 0.00 | 0.10 | 97 | 1008.0 |
| 20260506200846 | 58 | 228 | 1.7 | 4.3 | 0.01 | 0.00 | 0.09 | 97 | 1008.0 |
| 20260506200346 | 58 | 276 | 0.0 | 0.9 | 0.01 | 0.00 | 0.09 | 97 | 1008.0 |
| 20260506195845 | 58 | 82 | 1.7 | 2.6 | 0.03 | 0.00 | 0.09 | 97 | 1008.0 |
| 20260506195343 | 58 | 119 | 2.6 | 5.2 | 0.03 | 0.00 | 0.09 | 97 | 1008.0 |
| 20260506194845 | 58 | 149 | 1.7 | 3.5 | 0.00 | 0.00 | 0.09 | 96 | 1008.0 |
| 20260506194346 | 58 | 97 | 1.7 | 4.3 | 0.00 | 0.00 | 0.09 | 96 | 1008.0 |
| 20260506193845 | 58 | 47 | 3.5 | 4.3 | 0.00 | 0.00 | 0.09 | 96 | 1008.0 |
| 20260506193346 | 58 | 226 | 1.7 | 3.5 | 0.02 | 0.00 | 0.09 | 96 | 1008.0 |
| 20260506192843 | 58 | 136 | 1.7 | 3.5 | 0.01 | 0.00 | 0.09 | 96 | 1008.0 |
| 20260506192348 | 58 | 157 | 2.6 | 5.2 | 0.01 | 0.00 | 0.09 | 95 | 1008.0 |
| 20260506191357 | 58 | 206 | 1.7 | 3.5 | 0.07 | 0.00 | 0.08 | 94 | 1008.0 |
| 20260506190845 | 58 | 202 | 1.7 | 2.6 | 0.06 | 0.00 | 0.07 | 94 | 1008.0 |
| 20260506190347 | 58 | 166 | 0.9 | 1.7 | 0.04 | 0.00 | 0.06 | 94 | 1008.0 |
| 20260506185844 | 59 | 85 | 2.6 | 6.1 | 0.10 | 0.00 | 0.06 | 93 | 1008.0 |
| 20260506185347 | 59 | 115 | 0.9 | 1.7 | 0.06 | 0.00 | 0.05 | 92 | 1008.0 |
| 20260506184845 | 59 | 127 | 1.7 | 3.5 | 0.05 | 0.00 | 0.05 | 92 | 1008.0 |
| 20260506184347 | 59 | 119 | 0.9 | 2.6 | 0.04 | 0.00 | 0.04 | 91 | 1008.0 |
| 20260506183846 | 60 | 126 | 2.6 | 4.3 | 0.04 | 0.00 | 0.04 | 90 | 1008.0 |
| 20260506183346 | 60 | 176 | 0.9 | 2.6 | 0.02 | 0.00 | 0.03 | 89 | 1008.0 |
| 20260506182847 | 60 | 98 | 1.7 | 4.3 | 0.04 | 0.00 | 0.03 | 88 | 1009.0 |
| 20260506182347 | 61 | 93 | 1.7 | 5.2 | 0.05 | 0.00 | 0.03 | 87 | 1009.0 |
| 20260506181845 | 61 | 173 | 0.9 | 1.7 | 0.08 | 0.00 | 0.02 | 85 | 1009.0 |
| 20260506181345 | 62 | 298 | 1.7 | 2.6 | 0.03 | 0.00 | 0.02 | 85 | 1009.0 |
| 20260506180846 | 62 | 172 | 2.6 | 4.3 | 0.06 | 0.00 | 0.01 | 81 | 1009.0 |
| 20260506180343 | 63 | 155 | 1.7 | 2.6 | 0.06 | 0.00 | 0.01 | 79 | 1009.0 |
| 20260506175846 | 64 | 144 | 2.6 | 5.2 | 0.01 | 0.00 | 0.00 | 76 | 1009.0 |
| 20260506175345 | 64 | 161 | 2.6 | 4.3 | 0.05 | 0.00 | 0.00 | 75 | 1009.0 |
| 20260506174845 | 64 | 121 | 1.7 | 3.5 | 0.00 | 0.00 | 0.00 | 73 | 1009.0 |
| 20260506174346 | 65 | 212 | 3.5 | 7.0 | 0.00 | 0.00 | 0.00 | 72 | 1009.0 |
| 20260506173846 | 65 | 108 | 1.7 | 3.5 | 0.00 | 0.00 | 0.00 | 73 | 1009.0 |
| 20260506173345 | 65 | 121 | 4.3 | 7.0 | 0.00 | 0.00 | 0.00 | 71 | 1009.0 |
| 20260506172846 | 66 | 91 | 4.3 | 7.8 | 0.00 | 0.00 | 0.00 | 70 | 1009.0 |
| 20260506172345 | 66 | 163 | 2.6 | 4.3 | 0.00 | 0.00 | 0.00 | 69 | 1009.0 |
| 20260506171846 | 66 | 179 | 1.7 | 4.3 | 0.00 | 0.00 | 0.00 | 68 | 1009.0 |
| 20260506171345 | 67 | 202 | 2.6 | 5.2 | 0.00 | 0.00 | 0.00 | 67 | 1009.0 |
| 20260506170846 | 67 | 111 | 3.5 | 7.8 | 0.00 | 0.00 | 0.00 | 66 | 1009.0 |
| 20260506170346 | 68 | 69 | 2.6 | 5.2 | 0.00 | 0.00 | 0.00 | 66 | 1009.0 |
| 20260506165849 | 68 | 129 | 3.5 | 5.2 | 0.00 | 0.00 | 0.00 | 63 | 1009.0 |
| 20260506165345 | 68 | 229 | 3.5 | 5.2 | 0.00 | 0.00 | 0.00 | 65 | 1009.0 |
| 20260506164845 | 68 | 190 | 3.5 | 6.1 | 0.00 | 0.00 | 0.00 | 65 | 1009.0 |
| 20260506164345 | 68 | 133 | 1.7 | 2.6 | 0.00 | 0.00 | 0.00 | 65 | 1009.0 |
| 20260506163849 | 68 | 150 | 2.6 | 3.5 | 0.00 | 0.00 | 0.00 | 64 | 1009.0 |
| 20260506163345 | 69 | 80 | 4.3 | 7.8 | 0.00 | 0.00 | 0.00 | 63 | 1009.0 |
| 20260506162846 | 69 | 73 | 4.3 | 7.8 | 0.00 | 0.00 | 0.00 | 62 | 1009.0 |
| 20260506162345 | 68 | 56 | 2.6 | 7.0 | 0.00 | 0.00 | 0.00 | 62 | 1009.0 |
| 20260506161845 | 68 | 199 | 5.2 | 8.7 | 0.00 | 0.00 | 0.00 | 63 | 1009.0 |
| 20260506161346 | 68 | 116 | 5.2 | 9.6 | 0.00 | 0.00 | 0.00 | 62 | 1010.0 |
| 20260506160844 | 69 | 93 | 3.5 | 6.1 | 0.00 | 0.00 | 0.00 | 63 | 1009.0 |
| 20260506160346 | 69 | 212 | 3.5 | 5.2 | 0.00 | 0.00 | 0.00 | 61 | 1010.0 |
| 20260506155845 | 69 | 188 | 2.6 | 4.3 | 0.00 | 0.00 | 0.00 | 61 | 1009.0 |
| 20260506155344 | 69 | 177 | 2.6 | 9.6 | 0.00 | 0.00 | 0.00 | 62 | 1010.0 |
| 20260506154845 | 69 | 189 | 4.3 | 7.0 | 0.00 | 0.00 | 0.00 | 62 | 1010.0 |
| 20260506154346 | 69 | 88 | 1.7 | 3.5 | 0.00 | 0.00 | 0.00 | 63 | 1010.0 |
| 20260506153843 | 69 | 86 | 3.5 | 6.1 | 0.00 | 0.00 | 0.00 | 62 | 1010.0 |
| 20260506153345 | 69 | 73 | 1.7 | 3.5 | 0.00 | 0.00 | 0.00 | 60 | 1010.0 |